Location: Ajisawe
(8.4333°N, 4.3833°E)
Time: 05:45:24
(UTC+00:00)

A-11 Canister half - Pass Details

Date: 22 April 2021
Orbit: 1514 x 1685 km, 47.2° (Epoch: 12 May)

Event Time Altitude Azimuth Distance (km) Brightness Sun altitude
Rises 04:08:12 0° 322° (NW) 4,873 11.4 -20.5°
Reaches altitude 10° 04:11:20 10° 324° (NW) 3,903 10.9 -19.7°
Maximum altitude 04:21:24 76° 50° (NE) 1,725 9.3 -17.3°
Drops below altitude 10° 04:31:34 10° 134° (SE) 3,939 11.5 -14.9°
Sets 04:34:43 0° 136° (SE) 4,920 12.1 -14.2°
